Weather History for KSRB - March, 2013

Change the Weather History Date:

Tuesday, March 26, 2013

  Actual Average (KCSV) Record (KCSV)
Temperature  
Mean Temperature 32 °F 50 °F  
Max Temperature 37 °F 61 °F 80 °F (2007)
Min Temperature 28 °F 40 °F 11 °F (1955)
Degree Days  
Heating Degree Days 32    
Month to date heating degree days  
Since 1 July heating degree days  
Cooling Degree Days 0    
Month to date cooling degree days  
Year to date cooling degree days  
Moisture  
Dew Point 27 °F    
Average Humidity 82    
Maximum Humidity 100    
Minimum Humidity 65    
Precipitation  
Precipitation 0.00 in 0.18 in 1.88 in (1959)
Month to date precipitation 4.10  
Year to date precipitation 13.32  
Sea Level Pressure  
Sea Level Pressure 30.18 in    
Wind  
Wind Speed 6 mph (NW)    
Max Wind Speed 14 mph    
Max Gust Speed -    
Visibility 10 miles    
Events      
T = Trace of Precipitation, MM = Missing Value Source: NWS Daily Summary

Daily Weather History Graph

Daily Weather History Graph

Search for Another Location

Airport or City:

Trip Planner

Search our weather history database for the weather conditions in past years. The results will help you decide how hot, cold, wet, or windy it might be!

Date:

Astronomy

Mar. 26, 2013 Rise Set
Actual Time 6:36 AM CDT 6:59 PM CDT
Civil Twilight 6:11 AM CDT 7:24 PM CDT
Nautical Twilight 5:40 AM CDT 7:55 PM CDT
Astronomical Twilight 5:10 AM CDT 8:25 PM CDT
Moon 6:34 PM CDT (3/26) 5:52 AM CDT (3/26)
Length of Visible Light 13h 13m
Length of Day
12h 22m
Waxing Gibbous, 99% of the Moon is Illuminated
Mar 26
Waxing Gibbous
Mar 27
Full
Apr 2
Last Quarter
Apr 10
New
Apr 18
First Quarter

Hourly Weather History & Observations

Time (CDT) Temp. Windchill Dew Point Humidity Pressure Visibility Wind Dir Wind Speed Gust Speed Precip Events Conditions
12:15 AM 30.2 °F 25.4 °F 28.4 °F 93% 30.06 in 8.0 mi NW 4.6 mph - N/A   Overcast
12:35 AM 30.2 °F 22.6 °F 28.4 °F 93% 30.06 in 9.0 mi NW 8.1 mph - N/A   Overcast
12:55 AM 30.2 °F 22.6 °F 28.4 °F 93% 30.06 in 9.0 mi NNW 8.1 mph - N/A   Overcast
1:15 AM 30.2 °F 23.4 °F 28.4 °F 93% 30.06 in 8.0 mi WNW 6.9 mph - N/A   Overcast
1:35 AM 30.2 °F 25.4 °F 28.4 °F 93% 30.07 in 7.0 mi WNW 4.6 mph - N/A   Overcast
1:55 AM 30.2 °F 24.3 °F 28.4 °F 93% 30.07 in 9.0 mi NW 5.8 mph - N/A   Overcast
2:15 AM 30.2 °F 24.3 °F 26.6 °F 86% 30.07 in 10.0 mi NW 5.8 mph - N/A   Overcast
2:35 AM 30.2 °F 22.6 °F 26.6 °F 86% 30.06 in 10.0 mi NNW 8.1 mph - N/A   Overcast
2:55 AM 30.2 °F 23.4 °F 28.4 °F 93% 30.07 in 10.0 mi NW 6.9 mph - N/A   Overcast
3:15 AM 30.2 °F 24.3 °F 28.4 °F 93% 30.07 in 10.0 mi NNW 5.8 mph - N/A   Overcast
3:35 AM 30.2 °F 23.4 °F 26.6 °F 86% 30.06 in 10.0 mi NW 6.9 mph - N/A   Mostly Cloudy
3:55 AM 30.2 °F 25.4 °F 26.6 °F 86% 30.06 in 10.0 mi NW 4.6 mph - N/A   Mostly Cloudy
4:15 AM 30.2 °F 24.3 °F 26.6 °F 86% 30.07 in 10.0 mi NNW 5.8 mph - N/A   Overcast
4:35 AM 30.2 °F 22.6 °F 26.6 °F 86% 30.07 in 8.0 mi NW 8.1 mph - N/A   Overcast
4:55 AM 30.2 °F 24.3 °F 26.6 °F 86% 30.07 in 10.0 mi NW 5.8 mph - N/A   Overcast
5:15 AM 30.2 °F 25.4 °F 26.6 °F 86% 30.07 in 8.0 mi NW 4.6 mph - N/A   Overcast
5:35 AM 28.4 °F 21.2 °F 26.6 °F 93% 30.08 in 10.0 mi NW 6.9 mph - N/A   Overcast
5:55 AM 30.2 °F 22.6 °F 26.6 °F 86% 30.08 in 10.0 mi NW 8.1 mph - N/A   Overcast
6:15 AM 30.2 °F 24.3 °F 26.6 °F 86% 30.09 in 10.0 mi NW 5.8 mph - N/A   Overcast
6:35 AM 30.2 °F 24.3 °F 26.6 °F 86% 30.09 in 10.0 mi WNW 5.8 mph - N/A   Overcast
6:55 AM 30.2 °F 23.4 °F 28.4 °F 93% 30.10 in 10.0 mi NW 6.9 mph - N/A   Overcast
7:15 AM 28.4 °F 23.3 °F 28.4 °F 100% 30.11 in 9.0 mi NNW 4.6 mph - N/A   Overcast
7:35 AM 28.4 °F 22.2 °F 28.4 °F 100% 30.12 in 8.0 mi WNW 5.8 mph - N/A   Overcast
7:55 AM 30.2 °F 24.3 °F 28.4 °F 93% 30.13 in 7.0 mi NW 5.8 mph - N/A   Overcast
8:15 AM 30.2 °F 22.6 °F 28.4 °F 93% 30.14 in 9.0 mi NW 8.1 mph - N/A   Mostly Cloudy
8:35 AM 30.2 °F 24.3 °F 28.4 °F 93% 30.15 in 10.0 mi NW 5.8 mph - N/A   Mostly Cloudy
8:55 AM 30.2 °F 24.3 °F 28.4 °F 93% 30.16 in 10.0 mi NW 5.8 mph - N/A   Overcast
9:15 AM 30.2 °F 22.6 °F 28.4 °F 93% 30.17 in 9.0 mi NNW 8.1 mph - N/A   Overcast
9:35 AM 30.2 °F 23.4 °F 28.4 °F 93% 30.17 in 10.0 mi NW 6.9 mph - N/A   Mostly Cloudy
9:55 AM 32.0 °F 25.6 °F 28.4 °F 87% 30.18 in 10.0 mi NW 6.9 mph - N/A   Mostly Cloudy
10:15 AM 32.0 °F 24.2 °F 28.4 °F 87% 30.18 in 10.0 mi NW 9.2 mph - N/A   Scattered Clouds
10:35 AM 33.8 °F 27.0 °F 28.4 °F 81% 30.19 in 10.0 mi NNW 8.1 mph - N/A   Scattered Clouds
10:55 AM 33.8 °F 28.6 °F 28.4 °F 81% 30.19 in 10.0 mi NW 5.8 mph - N/A   Mostly Cloudy
11:15 AM 33.8 °F 26.4 °F 28.4 °F 81% 30.20 in 10.0 mi NNW 9.2 mph - N/A   Scattered Clouds
11:35 AM 33.8 °F 25.8 °F 28.4 °F 81% 30.21 in 10.0 mi NNW 10.4 mph - N/A   Partly Cloudy
11:55 AM 33.8 °F 26.4 °F 28.4 °F 81% 30.21 in 9.0 mi NW 9.2 mph - N/A   Partly Cloudy
12:15 PM 33.8 °F 27.0 °F 28.4 °F 81% 30.21 in 10.0 mi WNW 8.1 mph - N/A   Scattered Clouds
12:35 PM 33.8 °F 27.7 °F 26.6 °F 75% 30.21 in 10.0 mi NNW 6.9 mph - N/A   Partly Cloudy
12:55 PM 33.8 °F 25.8 °F 26.6 °F 75% 30.21 in 10.0 mi NW 10.4 mph - N/A   Partly Cloudy
1:15 PM 33.8 °F 27.7 °F 26.6 °F 75% 30.21 in 10.0 mi WNW 6.9 mph - N/A   Unknown
1:35 PM 35.6 °F 26.6 °F 24.8 °F 65% 30.22 in 10.0 mi NW 13.8 mph - N/A   Clear
1:55 PM 35.6 °F 28.6 °F 28.4 °F 75% 30.22 in 10.0 mi WNW 9.2 mph - N/A   Unknown
2:15 PM 33.8 °F 29.6 °F 28.4 °F 81% 30.22 in 7.0 mi NNW 4.6 mph - N/A   Mostly Cloudy
2:35 PM 33.8 °F 27.7 °F 26.6 °F 75% 30.22 in 7.0 mi Variable 6.9 mph - N/A   Mostly Cloudy
2:55 PM 33.8 °F 27.7 °F 24.8 °F 70% 30.22 in 10.0 mi NW 6.9 mph - N/A   Partly Cloudy
3:15 PM 35.6 °F 29.9 °F 26.6 °F 70% 30.22 in 10.0 mi WNW 6.9 mph - N/A   Unknown
3:35 PM 33.8 °F 26.4 °F 26.6 °F 75% 30.22 in 10.0 mi NNW 9.2 mph - N/A   Mostly Cloudy
3:55 PM 35.6 °F 29.2 °F 26.6 °F 70% 30.22 in 10.0 mi West 8.1 mph - N/A   Scattered Clouds
4:15 PM 35.6 °F 29.2 °F 26.6 °F 70% 30.23 in 10.0 mi NW 8.1 mph - N/A   Partly Cloudy
4:35 PM 35.6 °F 29.2 °F 24.8 °F 65% 30.22 in 10.0 mi NNW 8.1 mph - N/A   Mostly Cloudy
4:55 PM 37.4 °F 30.8 °F 26.6 °F 65% 30.23 in 10.0 mi West 9.2 mph - N/A   Mostly Cloudy
5:15 PM 35.6 °F 29.2 °F 26.6 °F 70% 30.23 in 10.0 mi WNW 8.1 mph - N/A   Partly Cloudy
5:35 PM 35.6 °F 29.9 °F 26.6 °F 70% 30.24 in 10.0 mi WNW 6.9 mph - N/A   Scattered Clouds
5:55 PM 35.6 °F 28.6 °F 26.6 °F 70% 30.25 in 10.0 mi NW 9.2 mph - N/A   Mostly Cloudy
6:15 PM 33.8 °F 29.6 °F 26.6 °F 75% 30.25 in 10.0 mi NNW 4.6 mph - N/A   Mostly Cloudy
6:35 PM 33.8 °F - 26.6 °F 75% 30.25 in 10.0 mi Calm Calm - N/A   Partly Cloudy
6:55 PM 33.8 °F 30.8 °F 26.6 °F 75% 30.26 in 10.0 mi WNW 3.5 mph - N/A   Partly Cloudy
7:15 PM 33.8 °F 30.8 °F 26.6 °F 75% 30.26 in 10.0 mi NW 3.5 mph - N/A   Clear
7:35 PM 32.0 °F - 26.6 °F 80% 30.27 in 10.0 mi Calm Calm - N/A   Partly Cloudy
7:55 PM 32.0 °F - 26.6 °F 80% 30.27 in 10.0 mi Calm Calm - N/A   Scattered Clouds
8:15 PM 33.8 °F - 26.6 °F 75% 30.28 in 10.0 mi Calm Calm - N/A   Overcast
8:35 PM 33.8 °F - 26.6 °F 75% 30.28 in 10.0 mi Calm Calm - N/A   Overcast
8:55 PM 33.8 °F - 26.6 °F 75% 30.29 in 10.0 mi Calm Calm - N/A   Mostly Cloudy
9:15 PM 33.8 °F 30.8 °F 26.6 °F 75% 30.30 in 10.0 mi WNW 3.5 mph - N/A   Overcast
9:35 PM 33.8 °F 30.8 °F 26.6 °F 75% 30.30 in 10.0 mi WNW 3.5 mph - N/A   Overcast
9:55 PM 33.8 °F 30.8 °F 26.6 °F 75% 30.30 in 10.0 mi NW 3.5 mph - N/A   Overcast
10:15 PM 33.8 °F 30.8 °F 26.6 °F 75% 30.30 in 10.0 mi NW 3.5 mph - N/A   Overcast
10:35 PM 33.8 °F - 28.4 °F 81% 30.30 in 10.0 mi Calm Calm - N/A   Overcast
10:55 PM 33.8 °F 30.8 °F 28.4 °F 81% 30.30 in 10.0 mi NW 3.5 mph - N/A   Overcast
11:15 PM 33.8 °F - 26.6 °F 75% 30.30 in 10.0 mi Calm Calm - N/A   Overcast
11:35 PM 33.8 °F - 26.6 °F 75% 30.31 in 10.0 mi Calm Calm - N/A   Overcast
11:55 PM 33.8 °F - 26.6 °F 75% 30.31 in 10.0 mi Calm Calm - N/A   Overcast